SB KEPS @ AMSAT $ORB10042.O Orbital Elements 10042.OSCAR
HR AMSAT ORBITAL ELEMENTS FOR OSCAR SATELLITES FROM WA5QGD FORT WORTH,TX February 11, 2010 Send Subscribe/unsubscribe to KEPS at http://www.amsat.org/mailman/listinfo/keps BID: ORB10042.O TO ALL RADIO AMATEURS BT
Satellite: AO-07 Catalog number: 07530 Epoch time: 10042.66741957 Element set: 702 Inclination: 101.4105 deg RA of node: 063.3713 deg Eccentricity: 0.0012073 Arg of perigee: 159.8231 deg Mean anomaly: 200.3315 deg Mean motion: 12.53577593 rev/day Decay rate: -2.7e-07 rev/day^2 Epoch rev: 61272 Checksum: 260
Satellite: FO-29 Catalog number: 24278 Epoch time: 10041.57337580 Element set: 0247 Inclination: 098.5210 deg RA of node: 248.1585 deg Eccentricity: 0.0351334 Arg of perigee: 092.2809 deg Mean anomaly: 271.8595 deg Mean motion: 13.52947056 rev/day Decay rate: -5.2e-07 rev/day^2 Epoch rev: 66598 Checksum: 330
Satellite: SO-33 Catalog number: 25509 Epoch time: 10042.65828237 Element set: 647 Inclination: 031.4343 deg RA of node: 138.3676 deg Eccentricity: 0.0354519 Arg of perigee: 272.2943 deg Mean anomaly: 083.7158 deg Mean motion: 14.28286317 rev/day Decay rate: 1.32e-06 rev/day^2 Epoch rev: 59009 Checksum: 313
Satellite: RS-22 Catalog number: 27939 Epoch time: 10042.65607109 Element set: 7 Inclination: 097.9119 deg RA of node: 273.3304 deg Eccentricity: 0.0014618 Arg of perigee: 094.7903 deg Mean anomaly: 265.4970 deg Mean motion: 14.63379705 rev/day Decay rate: 6.6e-07 rev/day^2 Epoch rev: 34059 Checksum: 314
Satellite: VO-52 Catalog number: 28650 Epoch time: 10042.66174973 Element set: 432 Inclination: 097.7108 deg RA of node: 100.8936 deg Eccentricity: 0.0026464 Arg of perigee: 329.4703 deg Mean anomaly: 030.5006 deg Mean motion: 14.81680790 rev/day Decay rate: 4.68e-06 rev/day^2 Epoch rev: 25810 Checksum: 298
Satellite: SO-67 Catalog number: 35870 Epoch time: 10042.80204198 Element set: 437 Inclination: 097.3511 deg RA of node: 094.9531 deg Eccentricity: 0.0012381 Arg of perigee: 131.7171 deg Mean anomaly: 332.6406 deg Mean motion: 15.22870573 rev/day Decay rate: 6.78e-06 rev/day^2 Epoch rev: 2238 Checksum: 292
Satellite: HO-68 Catalog number: 36122 Epoch time: 10042.15061264 Element set: 130 Inclination: 100.4878 deg RA of node: 103.7771 deg Eccentricity: 0.0007195 Arg of perigee: 263.1659 deg Mean anomaly: 096.8630 deg Mean motion: 13.16279746 rev/day Decay rate: -4.5e-07 rev/day^2 Epoch rev: 763 Checksum: 287
/EX SB KEPS @ AMSAT $ORB10042.D Orbital Elements 10042.MICROS
HR AMSAT ORBITAL ELEMENTS FOR THE MICROSATS FROM WA5QGD FORT WORTH,TX February 11, 2010 Send Subscribe/unsubscribe to KEPS at http://www.amsat.org/mailman/listinfo/keps BID: ORB10042.D TO ALL RADIO AMATEURS BT
Satellite: UO-11 Catalog number: 14781 Epoch time: 10042.72582329 Element set: 173 Inclination: 098.0743 deg RA of node: 093.9785 deg Eccentricity: 0.0008139 Arg of perigee: 286.4732 deg Mean anomaly: 073.5573 deg Mean motion: 14.79767916 rev/day Decay rate: 3.31e-06 rev/day^2 Epoch rev: 39325 Checksum: 330
Satellite: AO-16 Catalog number: 20439 Epoch time: 10041.84651275 Element set: 819 Inclination: 098.3156 deg RA of node: 004.8359 deg Eccentricity: 0.0010911 Arg of perigee: 176.9453 deg Mean anomaly: 183.1800 deg Mean motion: 14.31847718 rev/day Decay rate: 2.6e-07 rev/day^2 Epoch rev: 4730 Checksum: 293
Satellite: LO-19 Catalog number: 20442 Epoch time: 10041.79474623 Element set: 730 Inclination: 098.2768 deg RA of node: 011.1014 deg Eccentricity: 0.0012073 Arg of perigee: 172.7613 deg Mean anomaly: 187.3744 deg Mean motion: 14.32080700 rev/day Decay rate: 1.6e-07 rev/day^2 Epoch rev: 4746 Checksum: 266
Satellite: AO-27 Catalog number: 22825 Epoch time: 10041.72462856 Element set: 0456 Inclination: 098.4703 deg RA of node: 353.0435 deg Eccentricity: 0.0007494 Arg of perigee: 282.6809 deg Mean anomaly: 077.3519 deg Mean motion: 14.29286416 rev/day Decay rate: 1.14e-06 rev/day^2 Epoch rev: 85398 Checksum: 326
Satellite: IO-26 Catalog number: 22826 Epoch time: 10041.81264372 Element set: 0189 Inclination: 098.4641 deg RA of node: 353.7802 deg Eccentricity: 0.0008048 Arg of perigee: 278.2681 deg Mean anomaly: 081.7599 deg Mean motion: 14.29540373 rev/day Decay rate: 3.9e-07 rev/day^2 Epoch rev: 85410 Checksum: 317
Satellite: GO-32 Catalog number: 25397 Epoch time: 10042.81637403 Element set: 110 Inclination: 098.3173 deg RA of node: 057.1562 deg Eccentricity: 0.0000294 Arg of perigee: 286.9358 deg Mean anomaly: 073.1769 deg Mean motion: 14.23170116 rev/day Decay rate: -1.82e-06 rev/day^2 Epoch rev: 60221 Checksum: 277
Satellite: NO-44 Catalog number: 26931 Epoch time: 10042.76418237 Element set: 384 Inclination: 067.0513 deg RA of node: 167.1151 deg Eccentricity: 0.0006642 Arg of perigee: 263.6292 deg Mean anomaly: 096.4048 deg Mean motion: 14.29583401 rev/day Decay rate: 1.79e-06 rev/day^2 Epoch rev: 43682 Checksum: 299
Satellite: SO-50 Catalog number: 27607 Epoch time: 10042.41776050 Element set: 100 Inclination: 064.5580 deg RA of node: 018.5134 deg Eccentricity: 0.0039245 Arg of perigee: 134.4617 deg Mean anomaly: 225.9701 deg Mean motion: 14.71497016 rev/day Decay rate: 3.6e-07 rev/day^2 Epoch rev: 38387 Checksum: 279
Satellite: CO-55 Catalog number: 27844 Epoch time: 10041.60711627 Element set: 0778 Inclination: 098.7118 deg RA of node: 052.3872 deg Eccentricity: 0.0009788 Arg of perigee: 172.3104 deg Mean anomaly: 187.8221 deg Mean motion: 14.20682781 rev/day Decay rate: 3.1e-07 rev/day^2 Epoch rev: 34311 Checksum: 299
Satellite: CO-57 Catalog number: 27848 Epoch time: 10042.67492236 Element set: 728 Inclination: 098.7175 deg RA of node: 052.5163 deg Eccentricity: 0.0009812 Arg of perigee: 171.6300 deg Mean anomaly: 188.5033 deg Mean motion: 14.20479098 rev/day Decay rate: 4.1e-07 rev/day^2 Epoch rev: 34322 Checksum: 303
Satellite: AO-51 Catalog number: 28375 Epoch time: 10042.57907200 Element set: 601 Inclination: 098.0559 deg RA of node: 043.2655 deg Eccentricity: 0.0084421 Arg of perigee: 117.8930 deg Mean anomaly: 243.0843 deg Mean motion: 14.40668416 rev/day Decay rate: 1.4e-07 rev/day^2 Epoch rev: 29542 Checksum: 286
Satellite: CO-56 Catalog number: 28941 Epoch time: 09297.68475575 Element set: 556 Inclination: 098.0955 deg RA of node: 138.9518 deg Eccentricity: 0.0011688 Arg of perigee: 319.8691 deg Mean anomaly: 040.7485 deg Mean motion: 16.46998778 rev/day Decay rate: 1.4491492e-01 rev/day^2 Epoch rev: 20790 Checksum: 407
Satellite: GENESAT1 Catalog number: 29655 Epoch time: 10042.57395701 Element set: 941 Inclination: 040.0179 deg RA of node: 116.0014 deg Eccentricity: 0.0003811 Arg of perigee: 129.0580 deg Mean anomaly: 231.0569 deg Mean motion: 15.73944989 rev/day Decay rate: 3.8912e-04 rev/day^2 Epoch rev: 18008 Checksum: 290
Satellite: CP3 Catalog number: 31129 Epoch time: 10041.78386239 Element set: 0504 Inclination: 097.9617 deg RA of node: 088.0242 deg Eccentricity: 0.0100801 Arg of perigee: 265.7941 deg Mean anomaly: 093.1735 deg Mean motion: 14.52207785 rev/day Decay rate: 1.51e-06 rev/day^2 Epoch rev: 14951 Checksum: 292
Satellite: CO-65 Catalog number: 32785 Epoch time: 10042.75291821 Element set: 602 Inclination: 097.9128 deg RA of node: 109.3305 deg Eccentricity: 0.0014443 Arg of perigee: 336.9153 deg Mean anomaly: 023.1424 deg Mean motion: 14.81582463 rev/day Decay rate: 5.30e-06 rev/day^2 Epoch rev: 9691 Checksum: 290
Satellite: KKS-1 Catalog number: 33493 Epoch time: 10042.78454359 Element set: 201 Inclination: 098.0702 deg RA of node: 161.3321 deg Eccentricity: 0.0019966 Arg of perigee: 183.2906 deg Mean anomaly: 176.8195 deg Mean motion: 14.80845188 rev/day Decay rate: 4.49e-06 rev/day^2 Epoch rev: 5692 Checksum: 314
Satellite: SOHLA-1 Catalog number: 33496 Epoch time: 10041.91832703 Element set: 0025 Inclination: 098.0469 deg RA of node: 152.7172 deg Eccentricity: 0.0005640 Arg of perigee: 240.3061 deg Mean anomaly: 119.7560 deg Mean motion: 14.69467300 rev/day Decay rate: -5.2e-07 rev/day^2 Epoch rev: 05633 Checksum: 269
/EX SB KEPS @ AMSAT $ORB10042.W Orbital Elements 10042.WEATHER
HR AMSAT ORBITAL ELEMENTS FOR WEATHER SATELLITES FROM WA5QGD FORT WORTH,TX February 11, 2010 Send Subscribe/unsubscribe to KEPS at http://www.amsat.org/mailman/listinfo/keps BID: ORB10042.W TO ALL RADIO AMATEURS BT
Satellite: NOAA-10 Catalog number: 16969 Epoch time: 10041.62852476 Element set: 0951 Inclination: 098.6723 deg RA of node: 071.7048 deg Eccentricity: 0.0011802 Arg of perigee: 217.9014 deg Mean anomaly: 142.1355 deg Mean motion: 14.27405348 rev/day Decay rate: -1.00e-06 rev/day^2 Epoch rev: 21752 Checksum: 279
Satellite: NOAA-11 Catalog number: 19531 Epoch time: 10041.30709999 Element set: 0966 Inclination: 098.7716 deg RA of node: 132.4875 deg Eccentricity: 0.0011761 Arg of perigee: 146.5157 deg Mean anomaly: 213.6766 deg Mean motion: 14.14914275 rev/day Decay rate: 1.04e-06 rev/day^2 Epoch rev: 10319 Checksum: 305
Satellite: NOAA-12 Catalog number: 21263 Epoch time: 10041.94926153 Element set: 0449 Inclination: 098.7695 deg RA of node: 055.1002 deg Eccentricity: 0.0012539 Arg of perigee: 169.5366 deg Mean anomaly: 190.6090 deg Mean motion: 14.25614530 rev/day Decay rate: -7.0e-07 rev/day^2 Epoch rev: 97441 Checksum: 292
Satellite: MET-3/5 Catalog number: 21655 Epoch time: 10041.61598732 Element set: 0734 Inclination: 082.5558 deg RA of node: 038.0556 deg Eccentricity: 0.0012535 Arg of perigee: 309.7623 deg Mean anomaly: 050.2340 deg Mean motion: 13.17022721 rev/day Decay rate: 5.1e-07 rev/day^2 Epoch rev: 88901 Checksum: 277
Satellite: MET-2/21 Catalog number: 22782 Epoch time: 10041.38115158 Element set: 0693 Inclination: 082.5499 deg RA of node: 353.0431 deg Eccentricity: 0.0023540 Arg of perigee: 041.4653 deg Mean anomaly: 318.8278 deg Mean motion: 13.83641845 rev/day Decay rate: 2.4e-07 rev/day^2 Epoch rev: 83054 Checksum: 292
